Regional Weather Roundup
Issued by NWS

Home | Current Version | Previous Version | Graphics & Text | Print | Product List | Glossary On
Versions: 1 2 3 4 5 6 7 8 9 10 11 12 13 14 15 16 17 18 19 20 21 22 23 24 25 26 27 28 29 30 31 32 33 34 35 36 37 38 39 40 41 42 43 44 45 46 47 48 49 50
000
ASUS43 KOAX 241910
RWRNE

WEATHER ROUNDUP FOR NEBRASKA
NATIONAL WEATHER SERVICE OMAHA NE
200 PM CDT WED AUG 24 2016

NOTES: SATELLITE DATA IS BEING USED TO AUGMENT CLOUD COVER ABOVE
       12000 FEET.
       "FAIR" INDICATES FEW OR NO CLOUDS BELOW 12,000 FEET WITH NO
       SIGNIFICANT WEATHER AND/OR OBSTRUCTIONS TO VISIBILITY.

  * THESE STATIONS DO NOT REPORT WEATHER SUCH AS RAIN...SNOW OR FOG.

NEZ001>004-019>022-054>056-242000-
NEBRASKA PANHANDLE

CITY           SKY/WX    TMP DP  RH WIND       PRES   REMARKS
SCOTTSBLUFF    CLOUDY    69  45  41 VRB5      30.19F
ALLIANCE       PTSUNNY   71  39  31 E8        30.18F
CHADRON        CLOUDY    71  41  33 VRB3      30.18F
KIMBALL        PTSUNNY   69  46  43 S17       30.22F
SIDNEY         MOSUNNY   69  38  32 SE15      30.20F
$$

NEZ057>060-069>072-079>082-242000-
SOUTHWEST NEBRASKA

CITY           SKY/WX    TMP DP  RH WIND       PRES   REMARKS
NORTH PLATTE   SUNNY     79  44  28 NE10      30.14F
IMPERIAL       PTSUNNY   76  38  25 NE8       30.17F
LEXINGTON      CLOUDY    75  47  37 NE7       30.12S
MCCOOK         PTSUNNY   76  45  33 NE14      30.12S
OGALLALA       MOSUNNY   79  32  18 NE12      30.17F
$$

NEZ005>010-023>029-035>040-094-242000-
NORTH CENTRAL NEBRASKA

CITY           SKY/WX    TMP DP  RH WIND       PRES   REMARKS
VALENTINE      CLOUDY    68  48  48 NW10      30.15F
AINSWORTH      CLOUDY    69  51  51 N7        30.15F
BROKEN BOW     CLOUDY    74  49  41 NE9       30.13S
O`NEILL        CLOUDY    75  46  35 N12       30.10F
ORD            CLOUDY    75  48  38 N5        30.10R
THEDFORD       PTSUNNY   75  48  38 N8        30.17F
$$

NEZ041-046>049-061>064-073>077-083>087-242000-
SOUTH CENTRAL NEBRASKA

CITY           SKY/WX    TMP DP  RH WIND       PRES   REMARKS
GRAND ISLAND   CLOUDY    72  53  51 NE8       30.09S
AURORA         CLOUDY    72  56  58 NE5       30.09R
HASTINGS       CLOUDY    70  56  61 CALM      30.11R
HEBRON         CLOUDY    71  69  91 N10       30.02F
HOLDREGE       CLOUDY    68  50  51 NE9G17    30.09R
KEARNEY *      CLOUDY    66  55  68 NE7       30.09S
YORK           CLOUDY    70  59  68 CALM      30.08R
$$

NEZ011>018-030>034-042>045-242000-
NORTHEAST NEBRASKA

CITY           SKY/WX    TMP DP  RH WIND       PRES   REMARKS
NORFOLK        PTSUNNY   73  56  54 N13       30.07R
ALBION         CLOUDY    71  55  56 N6        30.10R
BLAIR          PTSUNNY   80  61  53 N8        30.02R
FREMONT        MOSUNNY   78  52  39 NE8       30.03R
TEKAMAH        SUNNY     81  61  50 N13       30.00F
WAYNE          CLOUDY    72  57  59 NW10G16   30.07R
$$

NEZ050>053-065>068-078-088>093-242000-
SOUTHEAST NEBRASKA

CITY           SKY/WX    TMP DP  RH WIND       PRES   REMARKS
LINCOLN        PTSUNNY   79  61  53 NE8       30.03S
OMAHA EPPLEY   PTSUNNY   84  62  47 N9        30.00R
BEATRICE       RAIN      72  69  88 N10       30.02R
FALLS CITY     CLOUDY    78  71  79 CALM      29.99F
NEBRASKA CITY  CLOUDY    76  69  76 CALM      29.99F
PLATTSMOUTH    CLOUDY    78  69  73 N3        30.01S
$$

NEZ044-045-051>053-067-242000-
OMAHA AREA

CITY           SKY/WX    TMP DP  RH WIND       PRES   REMARKS
OMAHA EPPLEY   PTSUNNY   84  62  47 N9        30.00R
BLAIR          PTSUNNY   80  61  53 N8        30.02R
FREMONT        MOSUNNY   78  52  39 NE8       30.03R
MILLARD        PTSUNNY   82  60  47 N6        30.01R
OFFUTT AFB     CLOUDY    79  68  69 VRB2      30.00S
PLATTSMOUTH    CLOUDY    78  69  73 N3        30.01S
WAHOO          FAIR      76  62  61 NE3       30.04R
$$




USA.gov is the U.S. government's official web portal to all federal, state and local government web resources and services.